Regional Weather Roundup
Issued by NWS Grand Forks, ND

Home | Current Version | Previous Version | Graphics & Text | Print | Product List | Glossary On
Versions: 1 2 3 4 5 6 7 8 9 10 11 12 13 14 15 16 17 18 19 20 21 22 23 24 25 26 27 28 29 30 31 32 33 34 35 36 37 38 39 40 41 42 43 44 45 46 47 48 49 50
000
ASUS43 KFGF 230410
RWRFGF
PRAIRIE TO PINES  WEATHER ROUNDUP
NATIONAL WEATHER SERVICE EASTERN NORTH DAKOTA/GRAND FORKS ND
1000 PM CST WED FEB 22 2017

 **SATELLITE DATA USED TO AUGMENT SKY COVER AT AUTOMATED STATIONS**
 *****  WEATHER ACROSS EASTERN NORTH DAKOTA  *****

CITY           SKY/WX    TMP DP  RH WIND       PRES   REMARKS
GRAND FORKS    FAIR      30  22  72 NW9       29.95R WCI  22
GRAND FRKS AFB FAIR      29  25  84 N9        29.96R WCI  21
DEVILS LAKE    CLOUDY    30  26  85 NW10      29.95R WCI  21
FARGO          FAIR      32  28  85 N12       29.92R WCI  23
WAHPETON ARPT    N/A     32  27  80 N13       29.91R WCI  22
$$

 ***** WEATHER ACROSS CENTRAL AND WESTERN NORTH DAKOTA  *****

CITY           SKY/WX    TMP DP  RH WIND       PRES   REMARKS
BISMARCK       CLOUDY    33  28  81 N8        29.99R
MINOT          CLOUDY    32  26  78 W9        29.97R WCI  24
JAMESTOWN      FAIR      26  23  88 NW9       29.95R WCI  17
MINOT AFB      CLOUDY    31  28  87 W8        29.96S WCI  23
GARRISON         N/A     25  23  92 NW7       29.97S WCI  17
WILLISTON      MOCLDY    27  24  89 CALM      30.01R
DICKINSON      CLOUDY    27  23  85 NW3       29.95S
HETTINGER      LGT SNOW  28  26  92 NE7       29.97R FOG     WCI  21
$$

 *****  OTHER AIRPORT OBSERVATIONS IN OUR AREA  *****

CITY           SKY/WX    TMP DP  RH WIND       PRES   REMARKS
WALHALLA       NOT AVBL
GRAFTON AIRPOR FAIR      28  25  86 N10       29.98R WCI  19
VALLEY CITY AR FAIR      27  27 100 NW9       29.96R WCI  17
CANDO          NOT AVBL
CAVALIER APRT    N/A     28  23  80 NW8       29.97R WCI  20
GWINNER        FAIR      30  28  93 NW9       29.94R WCI  22
SHEYENNE NWR     N/A     29  24  83 N6        29.95S WCI  23
ROLLA          FAIR      25  25 100 NW10      29.96R WCI  15
 ***** THE ABOVE OBSERVATIONS ARE NON NWS ARE NOT QUALITY
       CONTROLLED AND MAY MIS-REPORT RAIN FOR SNOW...
$$

  *****  WEATHER ACROSS NORTHERN MINNESOTA  *****

CITY           SKY/WX    TMP DP  RH WIND       PRES   REMARKS
FLAG ISLAND    CLOUDY    27  18  69 N16G22    29.89R WCI  14
WARROAD        CLOUDY    28  21  74 NW10G16   29.90R WCI  19
ROSEAU         FAIR      28  21  74 N16       29.90R WCI  17
HALLOCK        CLOUDY    30  25  80 N13       29.94R WCI  20
THF RVR FALLS  FAIR      28  25  88 NW8       29.92R WCI  20
BAUDETTE       FAIR      26  18  71 N14       29.86R WCI  14
WASKISH        FAIR      27  23  86 NW5       29.86R WCI  21
CROOKSTON      FAIR      30  27  86 N15       29.94R WCI  19
GREENBUSH NDAW   N/A     21  19  93 NW6         N/A  WCI  14
$$
  *****  WEATHER ACROSS CENTRAL AND WEST MINNESOTA  *****

CITY           SKY/WX    TMP DP  RH WIND       PRES   REMARKS
FOSSTON        FAIR      27  25  93 NW9       29.89R WCI  17
BEMIDJI        FAIR      24  21  91 NW6       29.85R WCI  16
PARK RAPIDS    FAIR      28  22  78 NW7       29.84R WCI  21
ELBOW LAKE     CLOUDY    32  29  89 N13       29.88R WCI  22
WADENA         FAIR      28  27  93 N9        29.85R WCI  20
DETROIT LAKES  FAIR      32  28  86 N7        29.89R
MOORHEAD       FAIR      30  28  93 N13       29.93R WCI  20
FERGUS FALLS   MOCLDY    32  25  74 N13G20    29.92R WCI  22
MORRIS MN      CLOUDY    34  30  86 N16       29.86R WCI  23
STAPLES        CLOUDY    28  27  93 N13       29.84R WCI  18
$$
  *****  WEATHER ELSEWHERE ACROSS MINNESOTA  *****

CITY           SKY/WX    TMP DP  RH WIND       PRES   REMARKS
DULUTH         LGT SNOW  34  32  92 N12G21    29.71R FOG
INTRNTL FALLS  FAIR      26  22  84 NW6       29.82R WCI  19
ELY            FLURRIES  30  28  93 NW3       29.75S
CLOQUET        LGT SNOW  34  30  86 N12       29.72S
WHEATON        CLOUDY    32  28  86 NW16G22   29.92R WCI  21
BRAINERD       FLURRIES  32  29  88 N16       29.81R WCI  21
HIBBING        CLOUDY    30  29  96 N13       29.77R WCI  20
ALEXANDRIA     CLOUDY    33  31  92 N14       29.84R WCI  23
SAINT CLOUD    CLOUDY    35  32  88 N15G22    29.78R
MINNEAPOLIS    CLOUDY    41  34  76 N16       29.71R
$$

  *****  WEATHER ACROSS SOUTH DAKOTA  *****

CITY           SKY/WX    TMP DP  RH WIND       PRES   REMARKS
SIOUX FALLS    MOCLDY    38  35  89 N8        29.85R
BROOKINGS      CLOUDY    33  30  88 N15G23    29.84R WCI  23
WATERTOWN      CLOUDY    30  26  85 N18       29.87R WCI  18
HURON          CLOUDY    33  29  85 N20G26    29.92R WCI  21
SISSETON         N/A     32  28  85 N21G26    29.91R WCI  20
ABERDEEN       CLOUDY    32  25  75 N15       29.96R WCI  22
MITCHELL       CLOUDY    35  31  85 N15       29.91R
PIERRE         CLOUDY    34  29  82 NE17G23   29.93R WCI  23
MOBRIDGE       CLOUDY    33  27  78 N8        29.95R
RAPID CITY     CLOUDY    32  27  81 NE13      29.91R WCI  22
$$

  *****  SOME WEATHER IN NEARBY STATES *****

CITY           SKY/WX    TMP DP  RH WIND       PRES   REMARKS
GLASGOW MT     FAIR      26  24  92 CALM      30.00S
GREAT FALLS MT CLOUDY    30  25  81 N7        29.95R WCI  23
CHEYENNE WY    LGT SNOW  30  27  88 N7        29.78F FOG     WCI  23
SCOTTSBLUFF NE CLOUDY    44  25  47 N14       29.80F
OMAHA NE       FAIR      46  36  68 CALM      29.79R
DES MOINES IA  FAIR      55  42  61 N18G24    29.75R
DAVENPORT IA   FAIR      52  42  69 W7        29.67R
CHICAGO IL     FAIR      61  53  75 SW15G28   29.61S
EAU CLAIRE WI  CLOUDY    47  43  86 NW15      29.59R
LA CROSSE WI   FAIR      49  43  80 NW8       29.61R
$$

  *****  SOME NATIONAL WEATHER *****

CITY           SKY/WX    TMP DP  RH WIND       PRES   REMARKS
LA GUARDIA NY  MOCLDY    49  42  77 CALM      29.88F
RALEIGH NC     MOCLDY    58  53  84 CALM      29.94F
ATLANTA GA     MOCLDY    59  58  96 E8        29.89F
NEW ORLEANS LA FAIR      65  56  72 CALM      29.83R
OKLAHOMA CITY  FAIR      56  42  59 S5        29.69F
ALBUQUERQUE NM MOCLDY    54  30  40 N12G20    29.89S
SALT LAKE CITY LGT SNOW  33  29  85 NE12      29.80F FOG     WCI  24
LOS ANGELES CA FAIR      59  37  44 W6        30.04R
BOISE ID       CLOUDY    34  29  82 NW15      29.85F WCI  24
SEATTLE WA     FAIR      38  34  85 N6        30.19S
$$

*** WEATHER ACROSS MANITOBA...SASKATCHEWAN AND ONTARIO ***
                ***ONTARIO***

CITY           SKY/WX    TMP DP  RH WIND       PRES   REMARKS
GERALDTON      CLOUDY    30  23  74 N8        29.69R WCI  23
THUNDER BAY    MOCLDY    36  27  69 N10       29.73R
SIOUX LOOKOUT  NOT AVBL
TORONTO        MOCLDY    41  41 100 SE9       29.71F FOG
BIG TROUT LK   LGT SNOW   3  -2  78 NW10      29.83S WCI -12
PICKLE LAKE    NOT AVBL
DRYDEN         CLOUDY    28  19  69 NW8       29.79R WCI  20
KENORA         CLOUDY    25  14  63 NW13G20   29.86R WCI  13
$$
                *** MANITOBA***

CITY           SKY/WX    TMP DP  RH WIND       PRES   REMARKS
BRANDON        CLOUDY    30  25  80 NW7       29.97R WCI  23
DAUPHIN        CLOUDY    23  18  80 NE12      30.01R WCI  12
ISLAND LAKE    FLURRIES   1  -4  78 N6        29.95R WCI -10
PILOT MOUND      N/A     27  23  86 N5          N/A  WCI  21
THE PAS        PTCLDY     9   0  66 N13       30.05R WCI  -7
THOMPSON       LGT SNOW   0  -8  71 N10       30.03R DRFTSNOWWCI -17
WINNIPEG       MOCLDY    27  21  80 N13       29.96R WCI  16
LYNN LAKE      CLOUDY     1  -4  78 NE8       30.06S WCI -12
CHURCHILL      PTCLDY    -6 -11  77 NE20      30.17R WCI -29
GILLAM         LGT SNOW  -2  -8  78 NE16G23   30.01S WCI -23
$$
                ***SASKATCHEWAN***

CITY           SKY/WX    TMP DP  RH WIND       PRES   REMARKS
ESTEVAN        CLOUDY    30  27  86 W8        29.98S WCI  23
KINDERSLEY     MOCLDY    21  18  86 E3        30.04S
LLOYDMINSTER   MOCLDY    23  16  74 NW9       30.03R WCI  13
PRINCE ALBERT  FLURRIES  21  10  63 VRB2      30.05F
REGINA         CLOUDY    30  27  86 N12       29.99R WCI  21
YORKTON        CLOUDY    23  18  80 NW13G20   30.00R WCI  11
N. BATTLEFORD  CLOUDY    25  18  74 W7        30.06S WCI  17
LA RONGE       FLURRIES  14   9  79 W2        30.05S
SASKATOON      FLURRIES  25  16  68 NW13      30.07S WCI  13
SWIFT CURRENT  LGT SNOW  25  25 100 N12       29.99R WCI  14
$$
NOTE: THESE ARE AUTOMATED STATIONS WITH LIMITED QUALITY CONTROL
      "FAIR" INDICATES FEW OR NO CLOUDS BELOW 12,000 FEET WITH NO
      SIGNIFICANT WEATHER AND/OR OBSTRUCTIONS TO VISIBILITY.
      SKY/WX - SKY CONDITION AND SIGNIFICANT WEATHER.
      TMP - AIR TEMPERATURE.    DP   - DEWPOINT TEMPERATURE.
      RH  - RELATIVE HUMIDITY.  PRES - PRESSURE.
      HX  - HEAT INDEX.         WCI  - WIND CHILL INDEX.
$




USA.gov is the U.S. government's official web portal to all federal, state and local government web resources and services.